Location: DARK SKY Beskydy - Park tmavé oblohy, www.darkskybeskydy.cz
(49.4926°N, 18.5016°E)
Time: 12:39:24
(UTC+02:00)

Vanguard 1 - Pass Details

Date: 27 February 2024
Orbit: 653 x 3825 km, 34.2° (Epoch: 12 April)

Event Time Altitude Azimuth Distance (km) Brightness Sun altitude
Rises 23:28:36 0° 271° (W) 6,599 14.4 -48.3°
Reaches altitude 10° 23:32:50 10° 264° (W) 5,938 14.0 -48.4°
Enters shadow 23:40:46 29° 246° (WSW) 5,034 13.4 -48.6°
Maximum altitude 23:50:36 41° 204° (SSW) 4,736 - -48.7°
Drops below altitude 10° 00:10:47 10° 144° (SE) 6,654 - -48.7°
Sets 00:15:58 0° 138° (SE) 7,424 - -48.6°
